Location: Monteux
(44.0348°N, 4.9972°E)
Time: 17:08:27
(UTC+00:00)

Cosmos 1356 - Pass Details

Date: 30 November 2020
Orbit: 441 x 444 km, 81.1° (Epoch: 17 January)

Event Time Altitude Azimuth Distance (km) Brightness Sun altitude
Rises 16:35:14 0° 351° (N) 2,450 7.0 -5.9°
Reaches altitude 10° 16:37:19 10° 354° (N) 1,574 6.0 -6.3°
Maximum altitude 16:40:45 72° 78° (ENE) 472 3.3 -6.8°
Drops below altitude 10° 16:44:09 10° 164° (SSE) 1,562 6.2 -7.4°
Sets 16:46:12 0° 167° (SSE) 2,428 7.2 -7.7°
